星链-33977 (STARLINK-33977)

导读

STARLINK-33977是美国于2025年6月13日发射的星链卫星,隶属于SpaceX公司打造的星链星座项目。星链项目旨在构建全球卫星互联网星座,为全球范围提供宽带互联网接入服务,该卫星入轨后将助力星链星座扩容,进一步完善星座的全球覆盖与服务能力。

基本信息
目录编号:
64344
目录名称:
STARLINK-33977
国际标识:
2025-126A
轨道中心:
EARTH
卫星名称:
星链-33977
卫星全名:
星链-33977 (STARLINK-33977)
卫星状态:
在轨 (已飞行448 天)
发射日期:
2025-06-13 UTC
国别 :
美国 (US)
星等 :
--
轨道信息
数据来源 国际轨道数据
星历时间: 2026-09-04T12:00:02+0800
7小时前
查看轨道信息
半长轴: 6873.895km
偏心率: 0.0002867
轨道倾角: 69.999°
近地点辐角 262.033°
升交点赤经 304.043°
平近点角 201.019°
近地点: 493.787km
远地点: 497.729km
周期: 94.529分钟
每日圈数: 15.233456
详细信息
固有亮度:
5
最大亮度:
2.5
卫星平台:
Starlink V1.0
覆盖范围:
全球
运营商:
太空探索技术公司
运营商所在国:
美国
制造商(研发单位):
太空探索技术公司
制造商所在国:
美国
使用方式:
暂无
卫星简介
Starlink 计划是 SpaceX 推出的全球卫星互联网项目,通过发射低轨道卫星,为全球尤其是偏远地区提供高速、低延迟的互联网服务。自 2019 年起,Starlink 已部署数千颗卫星,旨在缩小全球数字鸿沟,推动互联网普及。该项目还为军事、航空等行业提供通信支持,带来广泛经济效益。
2D轨道图
3D轨道图
轨道高度分析图
轨道倾角分析图
轨道综合分析图
查看轨道综合分析图
交会数据列表
事件ID 空间交会对象 最接近时刻(TCA) 交会距离 交会风险概率(CRP) 交会风险指数(CRI) 操作
CDM_260904-002605-809106-434421
2026-09-04T
00:26:49+0000
0.503 km
远距离
1.819098E-4 高风险 0.8
CDM_260830-140306-434406-700321
2026-08-30T
14:03:40+0000
0.756 km
远距离
4.119908E-5 中风险 0.67
CDM_260904-020105-809106-434421
2026-09-04T
02:01:01+0000
1.465 km
极远距离
6.440406E-6 低风险 0.51
CDM_260830-120706-388106-434421
2026-08-30T
12:07:42+0000
2.409 km
极远距离
1.820446E-6 低风险 0.4
CDM_260904-173106-434406-653521
2026-09-04T
17:31:38+0000
1.902 km
极远距离
1.818266E-6 低风险 0.4
CDM_260905-042705-972506-434421
2026-09-05T
04:27:06+0000
2.253 km
极远距离
1.605556E-6 低风险 0.39
CDM_260904-230106-302006-434421
2026-09-04T
23:01:25+0000
2.642 km
极远距离
1.281044E-6 低风险 0.37
CDM_260904-012005-640906-434421
2026-09-04T
01:20:08+0000
2.223 km
极远距离
1.267854E-6 低风险 0.37
CDM_260830-220406-434406-701921
2026-08-30T
22:04:34+0000
2.687 km
极远距离
1.022323E-6 低风险 0.35
CDM_260904-155605-533206-434421
2026-09-04T
15:56:36+0000
2.907 km
极远距离
8.900095E-7 极低风险 0.34